Regional Weather Roundup
Issued by NWS Charleston, WV

Home | Current Version | Previous Version | Graphics & Text | Print | Product List | Glossary On
Versions: 1 2 3 4 5 6 7 8 9 10 11 12 13 14 15 16 17 18 19 20 21 22 23 24 25 26 27 28 29 30 31 32 33 34 35 36 37 38 39 40 41 42 43 44 45 46 47 48 49 50
000
ASUS41 KRLX 262210
RWRRLX
West Virginia Regional Weather Roundup
National Weather Service Charleston WV
600 PM EDT MON SEP 26 2016

Note: "fair" indicates few or no clouds below 12,000 feet with no
significant weather and/or obstructions to visibility.

WVZ003-262300-
Northern Panhandle of West Virginia

CITY           SKY/WX    TMP DP  RH WIND       PRES   REMARKS
WHEELING       CLOUDY    65  58  78 W13       29.97R
$$

WVZ009-262300-
Northwest West Virginia

CITY           SKY/WX    TMP DP  RH WIND       PRES   REMARKS
PARKERSBURG    CLOUDY    69  58  67 NW8       30.00R
$$

WVZ006-262300-
Western West Virginia

CITY           SKY/WX    TMP DP  RH WIND       PRES   REMARKS
HUNTINGTON     CLOUDY    70  60  70 NW13      29.99S
$$

WVZ015-262300-
West Central West Virginia

CITY           SKY/WX    TMP DP  RH WIND       PRES   REMARKS
CHARLESTON     CLOUDY    75  59  57 NW8       29.97S
$$

WVZ022-031-262300-
North Central West Virginia

CITY           SKY/WX    TMP DP  RH WIND       PRES   REMARKS
CLARKSBURG     CLOUDY    71  68  90 SW8       29.96R
MORGANTOWN     PTSUNNY   74  67  78 CALM      29.95S
$$

WVZ025-035-042-045-262300-
Southern West Virginia

CITY           SKY/WX    TMP DP  RH WIND       PRES   REMARKS
BECKLEY        MOSUNNY   68  65  90 VRB3      30.04S
LOGAN          CLOUDY    73  70  88 CALM      29.99S
BLUEFIELD      CLOUDY    69  62  78 W7        30.08R
LEWISBURG      CLOUDY    67  63  86 W3        30.04S
$$

WVZ047-262300-
Northern Mountains of West Virginia

CITY           SKY/WX    TMP DP  RH WIND       PRES   REMARKS
ELKINS         CLOUDY    66  62  87 SW3       30.01F
$$

WVZ052-262300-
Eastern Panhandle of West Virginia

CITY           SKY/WX    TMP DP  RH WIND       PRES   REMARKS
MARTINSBURG    CLOUDY    66  60  81 SE9       29.97S
PETERSBURG     LGT RAIN  71  68  92 CALM      29.95R
$$




USA.gov is the U.S. government's official web portal to all federal, state and local government web resources and services.